USA 149

Satellite information

Favourite Embed

Satellite Type and Status

PAYLOADIN ORBIT

Key statistics

Satellite USA 149 at a glance.

Uptime

9354

Days in orbit

Revolutions

≈ 1.0

Per day

Orbit

OTHER

Other

Inclination

13.0

Latest

Satellite identification and parameters

Extended collection of information and parameters for USA 149.

Object identification

Identified? True

Debris? False

Object name: USA 149

International designator: 2000-024A

Object number (NORAD): 26356

Object ID (CCSDS): 26356

Country: UNITED STATES OF AMERICA (US)

Current information (Y/N): Y

RCS size: LARGE

Orbital parameters

Period: 1436.184 minutes

Inclination: 13.032 deg

SMA: 42166.427 km

Apoapsis: 35790.828 km

Periapsis: 35785.757 km

RAAN: 13.1344 deg

Eccentricy: 0.00006013

Argument of periapsis: 185.2753 deg

Mean anomaly: 167.4521 deg

Mean motion: 1.00265738 rev/day

Mean motion (dot): 0.00000106 rev/day2

B* drag term: 0.0 1/REarth

Two-line elements (TLE)

Creation date: Dec. 16, 2025, 6:50 p.m.

Reference frame: TEME

Reference center: EARTH

Epoch: Dec. 16, 2025, 5:43 a.m. UTC

TLE line 0: 0 USA 149

TLE line 1: 1 26356U 00024A 25350.23853257 .00000106 00000-0 00000-0 0 9995

TLE line 2: 2 26356 13.0320 13.1344 0000601 185.2753 167.4521 1.00265738 31076

Live tracking on map

Real-time ground track for satellite USA 149.

In-orbit conjunctions

There are no conjunctions computed for USA 149, at the moment. Check back to stay up to date, as we update our databases every day.

Go to all conjunctions

Associated space launch

Early warning satellite

USA 149 was lifted into orbit during the mission ‘Titan 402B IUS | DSP 20’, on board a Titan 402B IUS space rocket.

The launch took place on May 8, 2000, 4:01 p.m. from Space Launch Complex 40.

For more information about the launch, click the button.

Launch to space Titan 402B IUS | DSP 20
Titan 402B IUS | DSP 20

Agency: N/A

Status: Launch Successful

Launch date: May 8, 2000, 4:01 p.m. UTC

Rocket: Titan 402B IUS

Launch pad: Space Launch Complex 40

Location: Cape Canaveral SFS, FL, USA

...

Latest news about this satellite

There are no fresh news available about this satellite. Check back as we update our databases every day.


Newsletter sign-up

Weekly statistics, charts and insights to help you stay on top of the space industry.